Time,TemperatureF,DewpointF,PressureIn,WindDirection,WindDirectionDegrees,WindSpeedMPH,WindSpeedGustMPH,Humidity,HourlyPrecipIn,Conditions,Clouds,dailyrainin,SoftwareType,DateUTC
2013-04-03 00:03:00,25.0,20.0,29.96,NW,313,9.0,-999.0,81,-99.99,,,-99.99,,2013-04-03 04:03:00,
2013-04-03 00:13:00,25.0,20.0,29.96,NW,313,9.0,-999.0,81,-99.99,,,-99.99,,2013-04-03 04:13:00,
2013-04-03 00:23:00,25.0,20.0,29.96,WNW,292,8.0,-999.0,80,-99.99,,,-99.99,,2013-04-03 04:23:00,
2013-04-03 00:33:00,25.0,20.0,29.96,WNW,292,8.0,-999.0,80,-99.99,,,-99.99,,2013-04-03 04:33:00,
2013-04-03 00:43:00,25.0,20.0,29.96,WNW,292,8.0,-999.0,80,-99.99,,,-99.99,,2013-04-03 04:43:00,
2013-04-03 00:53:00,25.0,19.0,29.96,West,267,6.0,-999.0,79,-99.99,,,-99.99,,2013-04-03 04:53:00,
2013-04-03 01:03:00,25.0,19.0,29.96,North,349,8.0,-999.0,79,-99.99,,,-99.99,,2013-04-03 05:03:00,
2013-04-03 01:12:00,25.0,19.0,29.96,North,349,8.0,-999.0,79,-99.99,,,-99.99,,2013-04-03 05:12:00,
2013-04-03 01:22:00,25.0,19.0,29.96,West,278,7.0,-999.0,79,-99.99,,,-99.99,,2013-04-03 05:22:00,
2013-04-03 01:32:00,25.0,20.0,29.96,West,270,6.0,-999.0,80,-99.99,,,-99.99,,2013-04-03 05:32:00,
2013-04-03 01:42:00,25.0,20.0,29.96,West,270,6.0,-999.0,80,-99.99,,,-99.99,,2013-04-03 05:42:00,
2013-04-03 01:52:00,25.0,20.0,29.96,NW,306,5.0,-999.0,80,-99.99,,,-99.99,,2013-04-03 05:52:00,
2013-04-03 02:02:00,25.0,20.0,29.96,West,271,5.0,-999.0,81,-99.99,,,-99.99,,2013-04-03 06:02:00,
2013-04-03 02:12:00,25.0,20.0,29.96,West,271,5.0,-999.0,81,-99.99,,,-99.99,,2013-04-03 06:12:00,
2013-04-03 02:22:00,25.0,20.0,29.97,West,261,6.0,-999.0,82,-99.99,,,-99.99,,2013-04-03 06:22:00,
2013-04-03 02:32:00,25.0,21.0,29.97,West,280,6.0,-999.0,83,-99.99,,,-99.99,,2013-04-03 06:32:00,
2013-04-03 02:42:00,25.0,21.0,29.97,West,280,6.0,-999.0,83,-99.99,,,-99.99,,2013-04-03 06:42:00,
2013-04-03 02:52:00,24.0,20.0,29.96,NW,315,5.0,-999.0,83,-99.99,,,-99.99,,2013-04-03 06:52:00,
2013-04-03 03:02:00,24.0,20.0,29.96,WNW,298,5.0,-999.0,83,-99.99,,,-99.99,,2013-04-03 07:02:00,
2013-04-03 03:12:00,24.0,20.0,29.96,WNW,298,5.0,-999.0,83,-99.99,,,-99.99,,2013-04-03 07:12:00,
2013-04-03 03:23:00,24.0,20.0,29.96,NW,306,6.0,-999.0,84,-99.99,,,-99.99,,2013-04-03 07:23:00,
2013-04-03 03:33:00,24.0,20.0,29.97,West,260,5.0,-999.0,84,-99.99,,,-99.99,,2013-04-03 07:33:00,
2013-04-03 03:42:00,24.0,20.0,29.97,West,260,5.0,-999.0,84,-99.99,,,-99.99,,2013-04-03 07:42:00,
2013-04-03 03:52:00,24.0,20.0,29.96,West,261,4.0,-999.0,83,-99.99,,,-99.99,,2013-04-03 07:52:00,
2013-04-03 04:03:00,24.0,19.0,29.96,NW,319,5.0,-999.0,82,-99.99,,,-99.99,,2013-04-03 08:03:00,
2013-04-03 04:12:00,24.0,19.0,29.96,NW,319,5.0,-999.0,82,-99.99,,,-99.99,,2013-04-03 08:12:00,
2013-04-03 04:22:00,24.0,19.0,29.96,WSW,256,5.0,-999.0,80,-99.99,,,-99.99,,2013-04-03 08:22:00,
2013-04-03 04:33:00,24.0,18.0,29.96,NW,312,5.0,-999.0,79,-99.99,,,-99.99,,2013-04-03 08:33:00,
2013-04-03 04:43:00,24.0,18.0,29.96,NW,312,5.0,-999.0,79,-99.99,,,-99.99,,2013-04-03 08:43:00,
2013-04-03 04:52:00,24.0,18.0,29.96,WNW,294,5.0,-999.0,79,-99.99,,,-99.99,,2013-04-03 08:52:00,
2013-04-03 05:02:00,23.0,17.0,29.96,NW,306,4.0,-999.0,79,-99.99,,,-99.99,,2013-04-03 09:02:00,
2013-04-03 05:12:00,23.0,17.0,29.96,NW,306,4.0,-999.0,79,-99.99,,,-99.99,,2013-04-03 09:12:00,
2013-04-03 05:22:00,23.0,17.0,29.97,WNW,294,4.0,-999.0,79,-99.99,,,-99.99,,2013-04-03 09:22:00,
2013-04-03 05:33:00,23.0,17.0,29.97,West,265,3.0,-999.0,78,-99.99,,,-99.99,,2013-04-03 09:33:00,
2013-04-03 05:43:00,23.0,17.0,29.97,West,265,3.0,-999.0,78,-99.99,,,-99.99,,2013-04-03 09:43:00,
2013-04-03 05:53:00,23.0,17.0,29.97,WNW,299,4.0,-999.0,77,-99.99,,,-99.99,,2013-04-03 09:53:00,
2013-04-03 06:03:00,23.0,17.0,29.98,WNW,284,5.0,-999.0,76,-99.99,,,-99.99,,2013-04-03 10:03:00,
2013-04-03 06:12:00,23.0,17.0,29.98,WNW,284,5.0,-999.0,76,-99.99,,,-99.99,,2013-04-03 10:12:00,
2013-04-03 06:22:00,23.0,16.0,29.98,West,272,5.0,-999.0,75,-99.99,,,-99.99,,2013-04-03 10:22:00,
2013-04-03 06:33:00,23.0,16.0,29.99,West,277,5.0,-999.0,73,-99.99,,,-99.99,,2013-04-03 10:33:00,
2013-04-03 06:43:00,23.0,16.0,29.99,West,277,5.0,-999.0,73,-99.99,,,-99.99,,2013-04-03 10:43:00,
2013-04-03 06:52:00,23.0,16.0,29.99,West,263,5.0,-999.0,73,-99.99,,,-99.99,,2013-04-03 10:52:00,
2013-04-03 07:02:00,24.0,17.0,30.00,West,265,5.0,-999.0,73,-99.99,,,-99.99,,2013-04-03 11:02:00,
2013-04-03 07:12:00,24.0,17.0,30.00,West,265,5.0,-999.0,73,-99.99,,,-99.99,,2013-04-03 11:12:00,
2013-04-03 07:23:00,24.0,17.0,30.01,NW,306,5.0,-999.0,73,-99.99,,,-99.99,,2013-04-03 11:23:00,
2013-04-03 07:32:00,24.0,17.0,30.02,West,267,4.0,-999.0,73,-99.99,,,-99.99,,2013-04-03 11:32:00,
2013-04-03 07:42:00,24.0,17.0,30.02,West,267,4.0,-999.0,73,-99.99,,,-99.99,,2013-04-03 11:42:00,
2013-04-03 07:52:00,24.0,17.0,30.02,WSW,258,4.0,-999.0,74,-99.99,,,-99.99,,2013-04-03 11:52:00,
2013-04-03 08:02:00,24.0,17.0,30.03,NW,304,5.0,-999.0,74,-99.99,,,-99.99,,2013-04-03 12:02:00,
2013-04-03 08:13:00,24.0,17.0,30.03,NW,304,5.0,-999.0,74,-99.99,,,-99.99,,2013-04-03 12:13:00,
2013-04-03 08:22:00,25.0,18.0,30.04,NW,316,6.0,-999.0,73,-99.99,,,-99.99,,2013-04-03 12:22:00,
2013-04-03 08:33:00,25.0,18.0,30.04,NNW,329,6.0,-999.0,73,-99.99,,,-99.99,,2013-04-03 12:33:00,
2013-04-03 08:42:00,25.0,18.0,30.04,NNW,329,6.0,-999.0,73,-99.99,,,-99.99,,2013-04-03 12:42:00,
2013-04-03 08:52:00,26.0,18.0,30.05,NNW,329,6.0,-999.0,71,-99.99,,,-99.99,,2013-04-03 12:52:00,
2013-04-03 09:02:00,26.0,18.0,30.05,WNW,295,6.0,-999.0,70,-99.99,,,-99.99,,2013-04-03 13:02:00,
2013-04-03 09:13:00,26.0,18.0,30.05,WNW,295,6.0,-999.0,70,-99.99,,,-99.99,,2013-04-03 13:13:00,
2013-04-03 09:22:00,26.0,17.0,30.05,WNW,296,6.0,-999.0,69,-99.99,,,-99.99,,2013-04-03 13:22:00,
2013-04-03 09:32:00,26.0,17.0,30.05,NW,318,7.0,-999.0,67,-99.99,,,-99.99,,2013-04-03 13:32:00,
2013-04-03 09:42:00,26.0,17.0,30.05,NW,318,7.0,-999.0,67,-99.99,,,-99.99,,2013-04-03 13:42:00,
2013-04-03 09:52:00,26.0,16.0,30.05,NW,312,8.0,-999.0,65,-99.99,,,-99.99,,2013-04-03 13:52:00,
2013-04-03 10:02:00,27.0,16.0,30.05,NW,315,8.0,-999.0,63,-99.99,,,-99.99,,2013-04-03 14:02:00,
2013-04-03 10:13:00,27.0,16.0,30.05,NW,315,8.0,-999.0,63,-99.99,,,-99.99,,2013-04-03 14:13:00,
2013-04-03 10:22:00,27.0,15.0,30.06,WNW,302,7.0,-999.0,60,-99.99,,,-99.99,,2013-04-03 14:22:00,
2013-04-03 10:32:00,27.0,12.0,30.06,WNW,296,12.0,-999.0,52,-99.99,,,-99.99,,2013-04-03 14:32:00,
2013-04-03 10:43:00,27.0,12.0,30.06,WNW,296,12.0,-999.0,52,-99.99,,,-99.99,,2013-04-03 14:43:00,
2013-04-03 10:52:00,28.0,14.0,30.06,WNW,302,9.0,-999.0,55,-99.99,,,-99.99,,2013-04-03 14:52:00,
2013-04-03 11:02:00,28.0,13.0,30.06,NNW,337,10.0,-999.0,52,-99.99,,,-99.99,,2013-04-03 15:02:00,
2013-04-03 11:13:00,28.0,13.0,30.06,NNW,337,10.0,-999.0,52,-99.99,,,-99.99,,2013-04-03 15:13:00,
2013-04-03 11:23:00,28.0,14.0,30.06,WNW,285,10.0,-999.0,56,-99.99,,,-99.99,,2013-04-03 15:23:00,
2013-04-03 11:33:00,29.0,14.0,30.06,West,270,9.0,-999.0,54,-99.99,,,-99.99,,2013-04-03 15:33:00,
2013-04-03 11:43:00,29.0,14.0,30.06,West,270,9.0,-999.0,54,-99.99,,,-99.99,,2013-04-03 15:43:00,
2013-04-03 11:53:00,29.0,13.0,30.07,WNW,294,11.0,-999.0,50,-99.99,,,-99.99,,2013-04-03 15:53:00,
2013-04-03 12:03:00,29.0,11.0,30.07,NW,323,13.0,-999.0,47,-99.99,,,-99.99,,2013-04-03 16:03:00,
2013-04-03 12:13:00,29.0,11.0,30.07,NW,323,13.0,-999.0,47,-99.99,,,-99.99,,2013-04-03 16:13:00,
2013-04-03 12:25:00,30.0,13.0,30.07,WNW,296,11.0,-999.0,48,-99.99,,,-99.99,,2013-04-03 16:25:00,
2013-04-03 12:33:00,30.0,12.0,30.08,WNW,285,11.0,-999.0,47,-99.99,,,-99.99,,2013-04-03 16:33:00,
2013-04-03 12:44:00,30.0,12.0,30.08,WNW,285,11.0,-999.0,47,-99.99,,,-99.99,,2013-04-03 16:44:00,
2013-04-03 12:52:00,31.0,14.0,30.07,WNW,285,10.0,-999.0,48,-99.99,,,-99.99,,2013-04-03 16:52:00,
2013-04-03 13:03:00,30.0,13.0,30.08,NNW,329,12.0,-999.0,49,-99.99,,,-99.99,,2013-04-03 17:03:00,
2013-04-03 13:14:00,30.0,13.0,30.08,NNW,329,12.0,-999.0,49,-99.99,,,-99.99,,2013-04-03 17:14:00,
2013-04-03 13:23:00,31.0,16.0,30.08,NW,308,9.0,-999.0,54,-99.99,,,-99.99,,2013-04-03 17:23:00,
2013-04-03 13:34:00,31.0,16.0,30.08,NW,308,9.0,-999.0,54,-99.99,,,-99.99,,2013-04-03 17:34:00,
2013-04-03 13:46:00,31.0,16.0,30.08,NW,308,9.0,-999.0,54,-99.99,,,-99.99,,2013-04-03 17:46:00,
2013-04-03 13:53:00,31.0,17.0,30.09,WSW,254,10.0,-999.0,55,-99.99,,,-99.99,,2013-04-03 17:53:00,
2013-04-03 14:03:00,31.0,16.0,30.09,NNW,344,10.0,-999.0,53,-99.99,,,-99.99,,2013-04-03 18:03:00,
2013-04-03 14:13:00,31.0,16.0,30.09,NNW,344,10.0,-999.0,53,-99.99,,,-99.99,,2013-04-03 18:13:00,
2013-04-03 14:23:00,31.0,16.0,30.09,West,264,11.0,-999.0,53,-99.99,,,-99.99,,2013-04-03 18:23:00,
2013-04-03 14:33:00,29.0,16.0,30.10,WNW,288,11.0,-999.0,59,-99.99,,,-99.99,,2013-04-03 18:33:00,
2013-04-03 14:43:00,29.0,16.0,30.10,WNW,288,11.0,-999.0,59,-99.99,,,-99.99,,2013-04-03 18:43:00,
2013-04-03 14:52:00,31.0,19.0,30.10,NNW,342,9.0,-999.0,60,-99.99,,,-99.99,,2013-04-03 18:52:00,
2013-04-03 15:03:00,30.0,20.0,30.11,NW,323,9.0,-999.0,65,-99.99,,,-99.99,,2013-04-03 19:03:00,
2013-04-03 15:13:00,30.0,20.0,30.11,NW,323,9.0,-999.0,65,-99.99,,,-99.99,,2013-04-03 19:13:00,
2013-04-03 15:22:00,29.0,16.0,30.11,West,265,12.0,-999.0,59,-99.99,,,-99.99,,2013-04-03 19:22:00,
2013-04-03 15:32:00,30.0,17.0,30.11,WNW,296,12.0,-999.0,57,-99.99,,,-99.99,,2013-04-03 19:32:00,
2013-04-03 15:42:00,30.0,17.0,30.11,WNW,296,12.0,-999.0,57,-99.99,,,-99.99,,2013-04-03 19:42:00,
2013-04-03 15:52:00,31.0,15.0,30.11,NW,319,12.0,-999.0,51,-99.99,,,-99.99,,2013-04-03 19:52:00,
2013-04-03 16:02:00,30.0,16.0,30.11,NNW,340,13.0,-999.0,55,-99.99,,,-99.99,,2013-04-03 20:02:00,
2013-04-03 16:13:00,30.0,16.0,30.11,NNW,340,13.0,-999.0,55,-99.99,,,-99.99,,2013-04-03 20:13:00,
2013-04-03 16:23:00,31.0,15.0,30.11,NW,320,11.0,-999.0,51,-99.99,,,-99.99,,2013-04-03 20:23:00,
2013-04-03 16:33:00,31.0,15.0,30.11,NNW,339,12.0,-999.0,51,-99.99,,,-99.99,,2013-04-03 20:33:00,
2013-04-03 16:42:00,31.0,15.0,30.11,NNW,339,12.0,-999.0,51,-99.99,,,-99.99,,2013-04-03 20:42:00,
2013-04-03 16:52:00,31.0,15.0,30.11,NNW,339,12.0,-999.0,51,-99.99,,,-99.99,,2013-04-03 20:52:00,
2013-04-03 17:03:00,31.0,15.0,30.11,NNW,339,12.0,-999.0,51,-99.99,,,-99.99,,2013-04-03 21:03:00,